[[{"header":{"parameterUnit":"m.s-1","parameterCategory":1,"la1":30.2991,"la2":30.254,"lo1":-89.0895,"lo2":-89.0444,"dy":0.0017,"dx":0.0017,"nx":28,"ny":28,"refTime":"2025-12-15T03:00:00:Z","depth":0,"parameterNumber":2,"parameterNumberName":"U-component_of_WINDS"},"data":[0,0,0,0,0,0,0,0,0,0,0,0,0,0,0,0,0,0,0,0,0,0,0,0,0,0,0,0,0,0,0,0,0,0,0,0,0,0,0,0,0,0,0,0,0,0,0,0,0,0,0,0,0,0,0,0,0,0,-1.4333,-1.4332,0,-1.4307,-1.4307,-1.4307,-1.426,-1.4259,-1.4258,-1.4258,-1.4234,-1.4234,-1.4234,0,0,0,0,0,0,0,0,0,0,0,0,0,-1.4342,-1.4342,-1.4333,-1.4332,-1.4332,-1.4307,-1.4307,-1.4307,-1.426,-1.4259,-1.4258,-1.4257,-1.4233,-1.4234,-1.4234,0,0,0,0,0,0,0,0,0,0,0,0,0,-1.433,-1.4342,-1.4333,-1.4306,-1.4303,-1.4307,-1.4307,-1.4307,-1.4261,-1.4259,-1.4258,-1.4257,-1.4233,-1.4234,-1.4234,-1.4263,0,0,-1.4235,-1.4235,0,0,0,0,0,0,0,0,-1.433,-1.4329,-1.431,-1.4308,-1.4305,-1.4285,-1.4302,-1.4292,-1.4261,-1.4277,-1.4257,-1.4256,-1.4252,-1.4251,-1.4249,-1.4262,-1.4261,-1.4235,-1.4235,-1.4235,-1.4235,0,0,0,0,0,0,0,-1.4331,-1.433,-1.4323,-1.431,-1.4307,-1.4296,-1.4292,-1.43,-1.4272,-1.4275,-1.4272,-1.4269,-1.425,-1.4249,-1.4248,-1.426,-1.4235,-1.4235,-1.4235,-1.4236,-1.4296,-1.4298,0,0,0,0,0,0,-1.4336,-1.4331,-1.4323,-1.4322,-1.4314,-1.4296,-1.4293,-1.4293,-1.4272,-1.4268,-1.4271,-1.4267,-1.4249,-1.4248,-1.4247,-1.428,-1.4235,-1.4236,-1.4236,-1.4295,-1.4297,-1.4298,0,0,0,0,0,0,-1.4336,-1.4336,-1.4324,-1.4326,-1.4323,-1.4298,-1.4298,-1.4293,-1.4292,-1.4269,-1.4264,-1.4274,-1.4248,-1.4247,-1.4259,-1.4279,-1.4236,-1.4236,-1.4293,-1.4296,-1.4298,-1.4347,0,0,0,0,0,0,-1.4337,-1.4336,-1.4347,-1.4326,-1.4323,-1.4337,-1.43,-1.4294,-1.4292,-1.4288,-1.427,-1.4266,-1.4247,-1.4259,-1.426,-1.4279,-1.4236,-1.4292,-1.4294,-1.4297,-1.4344,-1.4351,-1.4357,0,0,0,0,0,-1.4337,-1.4362,-1.4347,-1.4347,-1.4336,-1.4338,-1.4337,-1.4313,-1.4294,-1.4305,-1.429,-1.4267,-1.4276,-1.4261,-1.4261,-1.428,-1.429,-1.4294,-1.4297,-1.4341,-1.4349,-1.4356,0,0,0,0,0,0,-1.4386,-1.4359,-1.4342,-1.4361,-1.4352,-1.433,-1.4343,-1.4323,-1.432,-1.4316,-1.4287,-1.4284,-1.43,-1.4291,-1.4275,-1.4308,-1.428,-1.4283,-1.4313,-1.4321,-1.4327,-1.433,-1.4236,0,0,0,0,0,-1.4398,-1.4402,-1.4378,-1.4397,-1.4393,-1.4369,-1.4369,-1.4351,-1.4342,-1.4338,-1.4324,-1.4316,-1.4317,-1.4318,-1.4318,-1.4341,-1.4338,-1.4355,-1.4361,-1.4367,-1.4371,-1.4383,-1.4391,-1.4309,-1.4309,-1.4309,0,0,-1.4425,-1.4411,-1.4415,-1.4406,-1.4397,-1.4402,-1.4366,-1.4373,-1.4377,-1.4339,-1.435,-1.434,-1.4329,-1.4347,-1.4355,-1.434,-1.4392,-1.4371,-1.4376,-1.4376,-1.4388,-1.4395,-1.4402,-1.4311,-1.4311,-1.431,0,0,-1.4476,-1.4465,-1.448,-1.4472,-1.4458,-1.4442,-1.4446,-1.4427,-1.4418,-1.4429,-1.4401,-1.4405,-1.4407,-1.4401,-1.4398,-1.4446,-1.4426,-1.4447,-1.4482,-1.4494,-1.4501,-1.4507,-1.4525,-1.4532,-1.445,-1.445,-1.4451,0,-1.4511,-1.4517,-1.449,-1.4499,-1.4496,-1.4461,-1.4477,-1.447,-1.4458,-1.4457,-1.4441,-1.4443,-1.4433,-1.445,-1.4462,-1.446,-1.4464,-1.4449,-1.4502,-1.4507,-1.4512,-1.453,-1.4537,-1.4453,-1.4453,-1.4453,-1.4452,0,-1.4561,-1.4566,-1.4579,-1.4568,-1.4567,-1.4579,-1.4554,-1.4556,-1.4538,-1.4524,-1.4536,-1.4522,-1.4519,-1.4521,-1.4504,-1.4536,-1.4528,-1.4507,-1.4479,-1.4523,-1.4539,-1.4546,-1.4457,-1.4456,-1.4455,-1.4455,0,0,-1.4644,-1.4617,-1.4622,-1.4617,-1.46,-1.4603,-1.4613,-1.4609,-1.4612,-1.4605,-1.4614,-1.4616,-1.4597,-1.4593,-1.4575,-1.4586,-1.4627,-1.4564,-1.4564,-1.4578,-1.4663,-1.4679,-1.4688,-1.4613,-1.4614,-1.4615,-1.4664,0,-1.4692,-1.4708,-1.4684,-1.4706,-1.471,-1.4677,-1.4686,-1.4677,-1.4664,-1.4666,-1.4651,-1.4654,-1.4627,-1.4625,-1.4635,-1.462,-1.4644,-1.4616,-1.4622,-1.4622,-1.4627,-1.4696,-1.4713,-1.4761,-1.467,-1.4671,-1.4672,0,-1.4752,-1.4747,-1.4769,-1.475,-1.4751,-1.476,-1.4755,-1.4757,-1.4746,-1.4735,-1.4731,-1.471,-1.4719,-1.4691,-1.4704,-1.4686,-1.4686,-1.468,-1.4681,-1.4682,-1.4651,-1.47,-1.4775,-1.4783,-1.4681,-1.468,-1.468,0,-1.4811,-1.481,-1.4823,-1.4819,-1.4798,-1.4805,-1.4796,-1.4784,-1.4783,-1.4779,-1.4778,-1.4775,-1.4774,-1.4772,-1.475,-1.4731,-1.4767,-1.4736,-1.4759,-1.476,-1.477,-1.477,-1.4848,-1.4768,-1.4767,-1.4767,-1.4767,0,-1.4869,-1.4884,-1.485,-1.4858,-1.4874,-1.4846,-1.4863,-1.4851,-1.484,-1.4846,-1.4817,-1.4824,-1.4793,-1.4797,-1.478,-1.4794,-1.4793,-1.4786,-1.4782,-1.479,-1.4791,-1.4791,-1.4788,-1.4769,-1.4769,-1.4768,-1.4768,0,-1.4939,-1.4916,-1.4929,-1.4907,-1.4902,-1.4915,-1.4897,-1.4904,-1.4888,-1.4896,-1.4897,-1.4872,-1.4875,-1.4852,-1.4851,-1.4839,-1.4862,-1.4851,-1.4866,-1.4863,-1.4888,-1.4887,-1.497,-1.498,-1.4893,-1.4893,-1.4894,0,-1.4978,-1.4989,-1.4968,-1.497,-1.4963,-1.4966,-1.4965,-1.4937,-1.4938,-1.4926,-1.4935,-1.4935,-1.4933,-1.4939,-1.4922,-1.492,-1.491,-1.4939,-1.491,-1.4918,-1.4912,-1.4913,-1.4914,-1.4946,-1.4947,-1.4948,-1.4949,0,-1.5051,-1.5039,-1.5038,-1.5034,-1.5034,-1.5029,-1.5022,-1.5026,-1.4996,-1.4998,-1.4999,-1.4998,-1.4996,-1.4997,-1.4992,-1.4984,-1.4962,-1.4958,-1.4964,-1.4973,-1.4982,-1.4979,-1.4885,-1.4957,-1.4956,-1.4955,-1.4955,-1.4955,-1.5108,-1.5116,-1.5103,-1.5103,-1.5095,-1.509,-1.5096,-1.508,-1.5081,-1.5077,-1.5061,-1.5066,-1.5055,-1.5046,-1.504,-1.5044,-1.503,-1.5037,-1.504,-1.5043,-1.5048,-1.4979,-1.5043,-1.5042,-1.5042,-1.5042,-1.5042,0,-1.518,-1.5169,-1.517,-1.5162,-1.5162,-1.514,-1.5132,-1.5134,-1.5139,-1.513,-1.5129,-1.5131,-1.5131,-1.5114,-1.5112,-1.5119,-1.5109,-1.512,-1.512,-1.5119,-1.506,-1.5056,-1.5128,-1.5128,-1.5128,-1.5128,-1.5128,-1.5128,-1.5218,-1.5231,-1.5218,-1.5227,-1.5216,-1.5221,-1.5218,-1.5213,-1.5206,-1.521,-1.521,-1.5198,-1.5186,-1.5183,-1.5183,-1.5177,-1.5179,-1.5193,-1.5185,-1.5131,-1.5123,-1.5115,-1.5111,-1.5194,-1.5194,-1.5244,-1.5244,-1.5245]},{"header":{"parameterUnit":"m.s-1","parameterCategory":1,"la1":30.2991,"la2":30.254,"lo1":-89.0895,"lo2":-89.0444,"dy":0.0017,"dx":0.0017,"nx":28,"ny":28,"refTime":"2025-12-15T03:00:00:Z","depth":0,"parameterNumber":3,"parameterNumberName":"V-component_of_WINDS"},"data":[0,0,0,0,0,0,0,0,0,0,0,0,0,0,0,0,0,0,0,0,0,0,0,0,0,0,0,0,0,0,0,0,0,0,0,0,0,0,0,0,0,0,0,0,0,0,0,0,0,0,0,0,0,0,0,0,0,0,-1.9046,-1.9046,0,-1.9041,-1.9041,-1.9041,-1.9012,-1.9012,-1.9011,-1.901,-1.9005,-1.9005,-1.9006,0,0,0,0,0,0,0,0,0,0,0,0,0,-1.9031,-1.9031,-1.9046,-1.9046,-1.9046,-1.9041,-1.9041,-1.9041,-1.9012,-1.9012,-1.9011,-1.901,-1.9005,-1.9005,-1.9006,0,0,0,0,0,0,0,0,0,0,0,0,0,-1.9033,-1.9031,-1.9046,-1.9031,-1.903,-1.9041,-1.9041,-1.9041,-1.9013,-1.9011,-1.901,-1.9009,-1.9005,-1.9005,-1.9006,-1.9032,0,0,-1.9008,-1.9009,0,0,0,0,0,0,0,0,-1.9033,-1.9034,-1.9034,-1.9032,-1.9031,-1.9026,-1.9034,-1.9038,-1.9013,-1.9019,-1.901,-1.9009,-1.9013,-1.9013,-1.9014,-1.9032,-1.9031,-1.9009,-1.9009,-1.9009,-1.901,0,0,0,0,0,0,0,-1.9033,-1.9034,-1.9044,-1.9034,-1.9032,-1.9025,-1.9024,-1.9035,-1.9022,-1.9018,-1.9016,-1.9016,-1.9012,-1.9014,-1.9014,-1.9031,-1.9008,-1.9009,-1.901,-1.901,-1.907,-1.9072,0,0,0,0,0,0,-1.9035,-1.9034,-1.9045,-1.9044,-1.9029,-1.9026,-1.9025,-1.9029,-1.9022,-1.902,-1.9017,-1.9015,-1.9013,-1.9013,-1.9014,-1.9044,-1.9009,-1.901,-1.901,-1.9069,-1.9071,-1.9072,0,0,0,0,0,0,-1.9035,-1.9036,-1.9045,-1.9038,-1.9039,-1.9027,-1.9032,-1.9029,-1.9031,-1.9021,-1.9018,-1.9021,-1.9012,-1.9013,-1.9028,-1.9044,-1.901,-1.9011,-1.9068,-1.907,-1.9071,-1.9106,0,0,0,0,0,0,-1.9034,-1.9036,-1.9046,-1.9039,-1.9039,-1.9059,-1.9033,-1.903,-1.9032,-1.9029,-1.9024,-1.9022,-1.9011,-1.9027,-1.9029,-1.9044,-1.9012,-1.9066,-1.9069,-1.9071,-1.9103,-1.9108,-1.9113,0,0,0,0,0,-1.9034,-1.9055,-1.9046,-1.9048,-1.9051,-1.906,-1.906,-1.9048,-1.9034,-1.9044,-1.9037,-1.9022,-1.9041,-1.9029,-1.903,-1.9047,-1.9065,-1.9068,-1.9071,-1.9101,-1.9107,-1.9113,0,0,0,0,0,0,-1.9064,-1.9054,-1.9044,-1.9064,-1.9063,-1.9055,-1.9067,-1.9055,-1.9058,-1.9055,-1.9039,-1.9038,-1.9056,-1.9052,-1.9038,-1.9071,-1.9051,-1.9054,-1.9073,-1.9079,-1.9084,-1.9085,-1.9012,0,0,0,0,0,-1.9073,-1.9081,-1.9072,-1.909,-1.909,-1.9079,-1.9082,-1.9073,-1.9071,-1.907,-1.9065,-1.9064,-1.907,-1.9074,-1.9079,-1.9102,-1.9101,-1.9114,-1.9119,-1.9123,-1.9126,-1.9139,-1.9145,-1.908,-1.908,-1.908,0,0,-1.9092,-1.9087,-1.9094,-1.9096,-1.9095,-1.9104,-1.9079,-1.9089,-1.9096,-1.9072,-1.9086,-1.9082,-1.908,-1.91,-1.9108,-1.9098,-1.9144,-1.9126,-1.9129,-1.913,-1.9142,-1.9149,-1.9154,-1.9082,-1.9082,-1.9082,0,0,-1.9131,-1.9128,-1.9144,-1.9143,-1.914,-1.9132,-1.9136,-1.913,-1.9127,-1.9141,-1.9124,-1.9131,-1.9141,-1.9141,-1.9142,-1.9181,-1.9168,-1.9183,-1.9209,-1.9222,-1.9227,-1.9232,-1.9247,-1.9253,-1.9186,-1.9186,-1.9186,0,-1.9155,-1.9168,-1.9153,-1.9165,-1.9168,-1.9146,-1.9162,-1.9162,-1.9161,-1.9163,-1.9151,-1.9164,-1.9161,-1.9181,-1.9191,-1.9192,-1.9196,-1.9184,-1.9228,-1.9232,-1.9236,-1.9251,-1.9256,-1.9188,-1.9188,-1.9188,-1.9187,0,-1.9198,-1.9207,-1.922,-1.9221,-1.9224,-1.9238,-1.9226,-1.9231,-1.9221,-1.9214,-1.9229,-1.9225,-1.9229,-1.9232,-1.9222,-1.9251,-1.9245,-1.923,-1.921,-1.9244,-1.9258,-1.9263,-1.9191,-1.919,-1.919,-1.9189,0,0,-1.9257,-1.925,-1.9255,-1.9255,-1.9251,-1.9258,-1.9271,-1.9275,-1.928,-1.928,-1.9292,-1.9301,-1.9288,-1.9289,-1.9278,-1.929,-1.9323,-1.9274,-1.9274,-1.9285,-1.9356,-1.9368,-1.9375,-1.9313,-1.9314,-1.9315,-1.9356,0,-1.9296,-1.9318,-1.9306,-1.933,-1.9339,-1.9319,-1.933,-1.9329,-1.9323,-1.933,-1.9323,-1.9331,-1.9312,-1.9313,-1.9323,-1.9317,-1.9337,-1.9313,-1.9325,-1.9325,-1.9328,-1.9381,-1.9394,-1.9433,-1.9361,-1.9362,-1.9363,0,-1.9344,-1.9347,-1.9373,-1.9368,-1.9371,-1.9382,-1.9385,-1.9391,-1.939,-1.9385,-1.9386,-1.9373,-1.9386,-1.9365,-1.9382,-1.9366,-1.937,-1.9368,-1.9369,-1.9371,-1.9347,-1.9386,-1.9445,-1.9452,-1.9371,-1.937,-1.937,0,-1.9387,-1.9397,-1.9414,-1.9415,-1.9409,-1.9417,-1.9415,-1.9412,-1.9416,-1.9418,-1.9421,-1.9424,-1.9427,-1.943,-1.9419,-1.9404,-1.9439,-1.9416,-1.9436,-1.9436,-1.9445,-1.9445,-1.9507,-1.9445,-1.9445,-1.9445,-1.9445,0,-1.9433,-1.945,-1.9433,-1.9444,-1.9462,-1.9447,-1.9465,-1.9461,-1.9459,-1.9468,-1.945,-1.946,-1.9443,-1.9451,-1.9442,-1.9459,-1.946,-1.9456,-1.9454,-1.9459,-1.946,-1.9463,-1.946,-1.9446,-1.9446,-1.9446,-1.9445,0,-1.9484,-1.9474,-1.9491,-1.9484,-1.9483,-1.9497,-1.9491,-1.9501,-1.9493,-1.9506,-1.9508,-1.9496,-1.9505,-1.9493,-1.95,-1.9494,-1.9518,-1.951,-1.9519,-1.9517,-1.9538,-1.9537,-1.9606,-1.9615,-1.9545,-1.9546,-1.9546,0,-1.9515,-1.9528,-1.9522,-1.9528,-1.9527,-1.9535,-1.9539,-1.9524,-1.9529,-1.9528,-1.9538,-1.9545,-1.955,-1.9564,-1.9556,-1.9562,-1.9555,-1.9579,-1.9556,-1.9561,-1.9558,-1.9558,-1.956,-1.9584,-1.9585,-1.9586,-1.9586,0,-1.9571,-1.9566,-1.9572,-1.9577,-1.9582,-1.9584,-1.9586,-1.9591,-1.9576,-1.9582,-1.9591,-1.9594,-1.9601,-1.9609,-1.9612,-1.961,-1.9596,-1.9593,-1.9599,-1.9605,-1.961,-1.9609,-1.9533,-1.9592,-1.9592,-1.9591,-1.9591,-1.9591,-1.9614,-1.9625,-1.9623,-1.9631,-1.9631,-1.9633,-1.9642,-1.9636,-1.9643,-1.9648,-1.9638,-1.965,-1.9648,-1.9651,-1.965,-1.9659,-1.9649,-1.9656,-1.9658,-1.966,-1.9665,-1.9607,-1.9659,-1.9659,-1.9659,-1.9659,-1.9659,0,-1.9671,-1.9669,-1.9676,-1.9679,-1.9686,-1.9671,-1.9673,-1.9679,-1.9689,-1.9688,-1.9694,-1.9704,-1.9711,-1.9704,-1.971,-1.9718,-1.9712,-1.972,-1.972,-1.972,-1.9672,-1.9668,-1.9725,-1.9725,-1.9725,-1.9725,-1.9725,-1.9725,-1.9702,-1.9719,-1.9714,-1.9731,-1.9729,-1.974,-1.9742,-1.9744,-1.9743,-1.9756,-1.9762,-1.9757,-1.9754,-1.976,-1.9766,-1.9763,-1.9767,-1.9778,-1.9774,-1.973,-1.9723,-1.9717,-1.9713,-1.9778,-1.9778,-1.9821,-1.9821,-1.9822]}]]